This is the latest recevied weather packets stored in our database for station/object N3MFL. If no packets are shown the sender has not sent any weather packets the latest 10 day(s).
| Time | Temp. | Humidity | Pressure | Rain* | Wind** | Luminosity | Snow |
|---|---|---|---|---|---|---|---|
| 1776960694 | 17.22° C | 35% | 1011.6 hPa | 0 mm | - | 485 W/m² | - |
| 1776960393 | 17.22° C | 35% | 1011.5 hPa | 0 mm | - | 712 W/m² | - |
| 1776960092 | 17.22° C | 35% | 1011.5 hPa | 0 mm | - | 702 W/m² | - |
| 1776959789 | 17.22° C | 36% | 1011.5 hPa | 0 mm | - | 688 W/m² | - |
| 1776959487 | 17.78° C | 35% | 1011.5 hPa | 0 mm | - | 693 W/m² | - |
| 1776959182 | 17.78° C | 37% | 1011.7 hPa | 0 mm | - | 688 W/m² | - |
| 1776958877 | 16.67° C | 40% | 1011.8 hPa | 0 mm | - | 684 W/m² | - |
| 1776958576 | 16.67° C | 37% | 1012 hPa | 0 mm | - | 678 W/m² | - |
| 1776958275 | 17.22° C | 35% | 1011.9 hPa | 0 mm | - | 674 W/m² | - |
| 1776957971 | 16.67° C | 37% | 1012 hPa | 0 mm | - | 669 W/m² | - |
| 1776957666 | 16.67° C | 35% | 1012 hPa | 0 mm | - | 663 W/m² | - |
| 1776957361 | 16.67° C | 35% | 1012.1 hPa | 0 mm | - | 655 W/m² | - |
| 1776957056 | 17.22° C | 35% | 1011.8 hPa | 0 mm | - | 649 W/m² | - |
| 1776956755 | 16.67° C | 37% | 1011.8 hPa | 0 mm | - | 640 W/m² | - |
| 1776956455 | 16.67° C | 39% | 1011.9 hPa | 0 mm | - | 634 W/m² | - |
| 1776956150 | 17.22° C | 35% | 1012.1 hPa | 0 mm | - | 627 W/m² | - |
| 1776955846 | 17.22° C | 35% | 1012.1 hPa | 0 mm | - | 615 W/m² | - |
| 1776955543 | 17.22° C | 36% | 1011.8 hPa | 0 mm | - | 605 W/m² | - |
| 1776955239 | 16.67° C | 36% | 1012 hPa | 0 mm | - | 597 W/m² | - |
| 1776954935 | 16.67° C | 38% | 1012.1 hPa | 0 mm | - | 590 W/m² | - |
| 1776954631 | 16.67° C | 36% | 1012.1 hPa | 0 mm | - | 579 W/m² | - |
| 1776954330 | 16.67° C | 37% | 1012 hPa | 0 mm | - | 572 W/m² | - |
| 1776954025 | 17.22° C | 39% | 1012 hPa | 0 mm | - | 563 W/m² | - |
| 1776953721 | 16.67° C | 44% | 1011.9 hPa | 0 mm | - | 548 W/m² | - |
| 1776953420 | 16.67° C | 45% | 1012.1 hPa | 0 mm | - | 536 W/m² | - |
* Rain latest hour (hover to see other rain measurements)
** Current wind speed in m/s (hover to see current wind gust speed)